Location: Tierra Monte Subdivision
(35.2092°N, 106.4864°W)
Time: 13:35:24
(UTC+00:00)

CZ-2C R/B - Pass Details

Date: 30 March 2020
Orbit: 785 x 870 km, 98.3° (Epoch: 26 May)

Event Time Altitude Azimuth Distance (km) Brightness Sun altitude
Rises 03:50:36 0° 5° (N) 3,288 6.1 -29.0°
Reaches altitude 10° 03:52:59 10° 0° (N) 2,351 5.3 -29.4°
Maximum altitude 03:57:56 48° 287° (WNW) 1,018 3.4 -30.3°
Enters shadow 04:00:15 29° 230° (SW) 1,419 4.0 -30.7°
